Copper Harbor, MI

6:48 PM EDT on October 16, 2017 (GMT -0400)
Copper Harbor

Weather History for KP59 - October, 2013

Change the Weather History Date:

Wednesday, October 30, 2013

  Actual Average Record
Temperature  
Mean Temperature 40 °F -  
Max Temperature 48 °F 44 °F 66 °F (2008)
Min Temperature 34 °F 33 °F 23 °F (1996)
Degree Days  
Heating Degree Days 25    
Moisture  
Dew Point 37 °F    
Average Humidity 85    
Maximum Humidity 97    
Minimum Humidity 76    
Precipitation  
Precipitation 0.03 in - - ()
Sea Level Pressure  
Sea Level Pressure 30.02 in    
Wind  
Wind Speed 3 mph (SW)    
Max Wind Speed 10 mph    
Max Gust Speed 21 mph    
Averages and records for this station are not official NWS values.
T = Trace of Precipitation, MM = Missing Value Source: NWS Daily Summary

Daily Weather History Graph

Daily Weather History Graph

Search for Another Location

Airport or City:

Trip Planner

Search our weather history database for the weather conditions in past years. The results will help you decide how hot, cold, wet, or windy it might be!

Date:

Astronomy

Oct. 30, 2013 Rise Set
Actual Time 8:32 AM EDT 6:37 PM EDT
Civil Twilight 8:00 AM EDT 7:09 PM EDT
Nautical Twilight 7:24 AM EDT 7:45 PM EDT
Astronomical Twilight 6:48 AM EDT 8:20 PM EDT
Moon 4:05 AM EDT (10/30) 4:36 PM EDT (10/30)
Length of Visible Light 11h 08m
Length of Day
10h 04m
Waning Crescent, 17% of the Moon is Illuminated
Oct 30
Waning Crescent
Nov 3
New
Nov 10
First Quarter
Nov 17
Full
Nov 25
Last Quarter

Hourly Weather History & Observations

Time (EDT) Temp. Windchill Dew Point Humidity Pressure Visibility Wind Dir Wind Speed Gust Speed Precip Events Conditions
12:51 AM 34.0 °F - 28.9 °F 82% 30.19 in - Calm Calm - N/A   Unknown
1:51 AM 35.1 °F - 30.0 °F 82% 30.19 in - Calm Calm - N/A   Unknown
2:51 AM 36.0 °F - 30.9 °F 82% 30.18 in - Calm Calm - N/A   Unknown
3:51 AM 36.0 °F - 30.9 °F 82% 30.16 in - Calm Calm - N/A   Unknown
4:51 AM 36.0 °F 32.1 °F 30.9 °F 82% 30.16 in - WSW 4.6 mph - N/A   Unknown
5:51 AM 36.0 °F 33.3 °F 32.0 °F 86% 30.15 in - Variable 3.5 mph - N/A   Unknown
6:51 AM 37.0 °F - 32.0 °F 82% 30.15 in - Calm Calm - N/A   Unknown
7:51 AM 37.0 °F - 33.1 °F 86% 30.14 in - Calm Calm - N/A   Unknown
8:51 AM 37.0 °F - 33.1 °F 86% 30.13 in - Calm Calm - N/A   Unknown
9:51 AM 39.0 °F 36.8 °F 34.0 °F 82% 30.12 in - SW 3.5 mph - N/A   Unknown
10:51 AM 41.0 °F 38.0 °F 35.1 °F 79% 30.11 in - SW 4.6 mph - N/A   Unknown
11:51 AM 42.1 °F 39.2 °F 35.1 °F 76% 30.09 in - Variable 4.6 mph - N/A   Unknown
12:51 PM 42.1 °F 37.7 °F 36.0 °F 79% 30.08 in - SW 6.9 mph - N/A   Unknown
1:51 PM 43.0 °F 39.5 °F 37.0 °F 80% 30.04 in - SSW 5.8 mph - N/A   Unknown
2:51 PM 43.0 °F 38.8 °F 37.9 °F 82% 30.00 in - SW 6.9 mph - N/A   Unknown
3:51 PM 44.1 °F 40.8 °F 39.0 °F 82% 29.99 in - Variable 5.8 mph - N/A   Unknown
4:51 PM 44.1 °F 40.1 °F 39.9 °F 85% 29.95 in - Variable 6.9 mph - N/A   Unknown
5:51 PM 43.0 °F 38.8 °F 41.0 °F 93% 29.91 in - SW 6.9 mph - 0.01 in   Unknown
6:51 PM 45.0 °F 43.5 °F 43.0 °F 93% 29.88 in - SW 3.5 mph - 0.01 in   Unknown
7:51 PM 45.0 °F 42.6 °F 43.0 °F 93% 29.86 in - Variable 4.6 mph - N/A   Unknown
8:51 PM 46.0 °F 41.4 °F 44.1 °F 93% 29.83 in - SSW 9.2 mph 17.3 mph N/A   Unknown
9:51 PM 46.9 °F - 45.0 °F 93% 29.79 in - SW 10.4 mph 20.7 mph 0.01 in   Unknown
10:51 PM 46.9 °F - 46.0 °F 97% 29.76 in - SW 6.9 mph - N/A   Unknown
11:51 PM 48.0 °F - 46.0 °F 93% 29.74 in - SW 6.9 mph - N/A   Unknown